"Pseudo-MPEC" for C372CJ2

Created 2020 Sep 22 4:07:07 UT using Find_Orb

Click here for an explanation of pseudo-MPECs

 
 Astrometry: 
     C372CJ2  C2020 09 16.48147 07 43 43.00 +52 11 34.5    ~9GCM 21.2 GVNEOCPG96
     C372CJ2  C2020 09 16.48540 07 43 44.44 +52 11 37.7    ~9GCM 21.3 GVNEOCPG96
     C372CJ2  C2020 09 16.48933 07 43 45.85 +52 11 40.6    ~9GCM 20.9 GVNEOCPG96
     C372CJ2  C2020 09 16.49326 07 43 47.33 +52 11 43.5    ~9GCM 21.3 GVNEOCPG96
     C372CJ2  C2020 09 16.50884 07 43 53.05 +52 11 55.9    ~9GCq 20.9 GVNEOCPG96
     C372CJ2  C2020 09 16.51000 07 43 53.54 +52 11 56.6    ~9GCq 21.7 GVNEOCPG96
     C372CJ2 KC2020 09 17D\vN`F4uuCQ(E8=;\0JuIQ)fxFor.T^Nn+N(#%2,K$#@:4j57v#N711
     C372CJ2  C2020 09 17.48869 07 49 54.94 +52 23 42.1    ~9HC7 21.5 GVNEOCPG96
     C372CJ2  C2020 09 17.48944 07 49 55.24 +52 23 42.2    ~9HC7 21.8 GVNEOCPG96
     C372CJ2  C2020 09 17.49020 07 49 55.55 +52 23 42.8    ~9HC7 21.4 GVNEOCPG96
     C372CJ2 KC2020 09 17r*6ZAstrometry*j?Y8$aAredacted;^?J%%N(hpjW-@P0oH]S_q711
     C372CJ2 KC2020 09 17^)6qB:2=SQ=#0w,9wtcA,qb\'1*dC6'sIclicku,@N77+H47;12$711
     C372CJ2 2C2020 09 20SruoTWZ8OD\eGcFtfA,IhererCT@2lfor[wX_*P5y*lYvAXXaYu-J04
     C372CJ2 2C2020 09 20Sa(4GQ,E+LWw-.UF9+[li'explanationLf#^x=tKp5S^]^j\imgJ04
     C372CJ2 2C2020 09 20#!v$:(9-KA37xqj4A^StCj2g!*sBau?eiG%vL/xZ.:HL[aY/^$AKJ04
     C372CJ2  C2020 09 21.41469008 13 59.54 +53 00 40.8    ~9LAq 21.3 GVNEOCPH01
     C372CJ2  C2020 09 21.41784908 14 00.67 +53 00 42.3    ~9LAq 21.3 GVNEOCPH01
     C372CJ2  C2020 09 21.42807708 14 04.43 +53 00 47.2    ~9LAq 21.3 GVNEOCPH01
     C372CJ2  C2020 09 21.44316008 14 09.90 +53 00 54.4    ~9LAq 20.8 GVNEOCPH01

Station data:
(711) McDonald Observatory, Fort Davis  (N30.671481 W104.021500)  US/Texas.
   0.76-m f/3.0 reflector.
(G96) Mt. Lemmon Survey  (N32.442754 W110.788720)  US/Arizona.  Observers T.
   A. Pruyne, B. M. Africano, E. J. Christensen, G. A. Farneth, D. C. Fuls,
   A. R. Gibbs, A. D. Grauer, H. Gröller, J. A. Johnson, R. A. Kowalski, S.
   M. Larson, G. J. Leonard, D. Rankin, R. L. Seaman, F. C. Shelly. 1.5-m
   reflector + 10K CCD.
(H01) Magdalena Ridge Observatory, Socorro  (N33.984833 W107.189333)  US/New
   Mexico.  Observers W. H. Ryan, E. V. Ryan. Measurer W. H. Ryan. 2.4-m
   f/8.9 reflector + CCD.
(J04) ESA Optical Ground Station, Tenerife  (N28.300924 W16.511830)  Canary
   Islands (Spain).  Observer D. Abreu. Measurers M. Micheli, D. Koschny, E.
   Schwab, M. Busch, A. Knöfel. 1.0-m f/4.4 reflector + CCD.

Orbital elements:  C372CJ2
   Perihelion 2020 Aug 29.852438 +/- 0.386 TT = 20:27:30 (JD 2459091.352438)
Epoch 2020 Sep 21.0 TT = JDT 2459113.5   Earth MOID: 0.2973   Ma: 0.0609
M   5.37317215 +/- 0.37             (J2000 ecliptic)          AutoNEOCP
n   0.24260783 +/- 0.0137           Peri.   36.49137 +/- 0.37
a   2.54604552 +/- 0.0958           Node     5.60942 +/- 0.32
e   0.5173311 +/- 0.0162            Incl.   37.17584 +/- 0.10
P   4.06                   H 18.9   G  0.15   U  9.9  
q 1.22889688 +/- 0.00559    Q 3.86319415 +/- 0.202
From 19 observations 2020 Sept. 16-21; mean residual 0".20
Residuals in arcseconds: 
200916 G96  .05-  .02-    200917 G96  .11-  .23+    200920 J04  .13-  .08+    
200916 G96  .07-  .11+    200917 G96  .12+  .21-    200921 H01  .06+  .01-    
200916 G96  .36-  .05-    200917 G96  .41+  .15-    200921 H01  .15-  .01-    
200916 G96  .01-  .22-    200917 711  .05-  .13+    200921 H01  .11+  .04+    
200916 G96  .08+  .07+    200917 711  .38-  .19+    200921 H01  .14-  .11+    
200916 G96  .67+  .13-    200920 J04  .09+  .39-    
200917 711  .09-  .00     200920 J04  .24+  .10+    

Ephemerides (geocentric):
Date (UTC) HH   RA              Dec         delta   r     elong  mag " sig PA
---- -- -- --  -------------   -----------  ------ ------ -----  --- ---- ---
2020 09 22 04  08 18 33.425   +53 05 59.51  1.1843 1.2559  69.5 21.6 .292 172
2020 09 22 05  08 18 48.610   +53 06 16.09  1.1844 1.2560  69.5 21.6 .304 171
2020 09 22 06  08 19 03.793   +53 06 32.56  1.1845 1.2561  69.5 21.6 .317 171
2020 09 22 07  08 19 18.972   +53 06 48.92  1.1846 1.2562  69.5 21.6 .330 171
2020 09 22 08  08 19 34.148   +53 07 05.19  1.1847 1.2563  69.5 21.6 .343 171
2020 09 22 09  08 19 49.320   +53 07 21.35  1.1848 1.2564  69.5 21.6 .356 170
2020 09 22 10  08 20 04.490   +53 07 37.40  1.1849 1.2565  69.5 21.6 .369 170
2020 09 22 11  08 20 19.656   +53 07 53.36  1.1850 1.2566  69.5 21.6 .382 170
2020 09 22 12  08 20 34.819   +53 08 09.21  1.1851 1.2567  69.5 21.6 .396 170
2020 09 22 13  08 20 49.979   +53 08 24.96  1.1852 1.2568  69.5 21.6 .410 169
2020 09 22 14  08 21 05.135   +53 08 40.60  1.1853 1.2569  69.5 21.6 .424 169
2020 09 22 15  08 21 20.288   +53 08 56.15  1.1854 1.2570  69.5 21.6 .438 169
2020 09 22 16  08 21 35.438   +53 09 11.59  1.1854 1.2571  69.5 21.6 .452 169
2020 09 22 17  08 21 50.584   +53 09 26.93  1.1855 1.2572  69.5 21.6 .466 169
2020 09 22 18  08 22 05.727   +53 09 42.16  1.1856 1.2573  69.5 21.6 .481 169
2020 09 22 19  08 22 20.867   +53 09 57.30  1.1857 1.2574  69.5 21.6 .496 168
2020 09 22 20  08 22 36.003   +53 10 12.33  1.1858 1.2575  69.5 21.6 .511 168
2020 09 22 21  08 22 51.135   +53 10 27.26  1.1859 1.2576  69.5 21.6 .526 168
2020 09 22 22  08 23 06.264   +53 10 42.08  1.1860 1.2577  69.5 21.6 .541 168
2020 09 22 23  08 23 21.390   +53 10 56.81  1.1861 1.2578  69.5 21.6 .556 168
2020 09 23 00  08 23 36.512   +53 11 11.43  1.1862 1.2579  69.5 21.6 .572 168
2020 09 23 01  08 23 51.631   +53 11 25.96  1.1863 1.2580  69.6 21.6 .588 168
2020 09 23 02  08 24 06.746   +53 11 40.38  1.1864 1.2581  69.6 21.6 .604 168
2020 09 23 03  08 24 21.857   +53 11 54.70  1.1865 1.2582  69.6 21.6 .620 167
2020 09 23 04  08 24 36.965   +53 12 08.91  1.1866 1.2583  69.6 21.6 .636 167
2020 09 23 05  08 24 52.069   +53 12 23.03  1.1867 1.2584  69.6 21.6 .652 167
2020 09 23 06  08 25 07.169   +53 12 37.05  1.1868 1.2585  69.6 21.6 .669 167
2020 09 23 07  08 25 22.266   +53 12 50.96  1.1869 1.2586  69.6 21.6 .686 167
2020 09 23 08  08 25 37.359   +53 13 04.78  1.1870 1.2587  69.6 21.6 .702 167
2020 09 23 09  08 25 52.448   +53 13 18.49  1.1871 1.2588  69.6 21.6 .719 167
2020 09 23 10  08 26 07.533   +53 13 32.10  1.1872 1.2589  69.6 21.6 .737 167
2020 09 23 11  08 26 22.615   +53 13 45.61  1.1873 1.2590  69.6 21.6 .754 167
2020 09 23 12  08 26 37.693   +53 13 59.02  1.1874 1.2591  69.6 21.6 .772 167
2020 09 23 13  08 26 52.767   +53 14 12.33  1.1875 1.2592  69.6 21.6 .789 166
2020 09 23 14  08 27 07.837   +53 14 25.54  1.1875 1.2593  69.6 21.6 .807 166
2020 09 23 15  08 27 22.904   +53 14 38.65  1.1876 1.2594  69.6 21.6 .825 166
2020 09 23 16  08 27 37.966   +53 14 51.66  1.1877 1.2595  69.6 21.6 .843 166
2020 09 23 17  08 27 53.025   +53 15 04.57  1.1878 1.2596  69.6 21.6 .862 166
2020 09 23 18  08 28 08.079   +53 15 17.38  1.1879 1.2597  69.6 21.6 .880 166
2020 09 23 19  08 28 23.130   +53 15 30.09  1.1880 1.2598  69.6 21.6 .899 166
2020 09 23 20  08 28 38.177   +53 15 42.70  1.1881 1.2599  69.6 21.6 .918 166
2020 09 23 21  08 28 53.220   +53 15 55.21  1.1882 1.2600  69.6 21.6 .937 166
2020 09 23 22  08 29 08.258   +53 16 07.62  1.1883 1.2601  69.6 21.6 .956 166
2020 09 23 23  08 29 23.293   +53 16 19.94  1.1884 1.2602  69.6 21.6 .975 166
2020 09 24 00  08 29 38.324   +53 16 32.15  1.1885 1.2603  69.6 21.6 0.99 166
2020 09 24 01  08 29 53.350   +53 16 44.26  1.1886 1.2604  69.6 21.6 1.01 165
2020 09 24 02  08 30 08.373   +53 16 56.28  1.1887 1.2605  69.6 21.6 1.03 165
2020 09 24 03  08 30 23.391   +53 17 08.19  1.1888 1.2606  69.6 21.6 1.05 165